SWA4298 KSLC-KLAX

Flight info

Callsign SWA4298
Flight time 1h 32m
Altitude 36000
Route ZIONZ1 EHK EEVUN Q73 HAKMN ANJLL4
Aircraft B738/M-SDE2E3FGHIRWXY/LB1

Departure

Time 2026-04-20 21:30
Airport Salt Lake City International Airport (KSLC)

Arrival

Time 2026-04-20 23:02
Airport Los Angeles International Airport (KLAX)
Time Latitude Longitude Altitude Speed Heading
2026-04-20 20:48 40.78656 -111.98206 4232 ft 0 kts 175°
2026-04-20 21:16 40.78673 -111.98208 4231 ft 4 kts 175°
2026-04-20 21:16 40.78699 -111.98211 4230 ft 4 kts 169°
2026-04-20 21:17 40.78721 -111.98223 4229 ft 4 kts 117°
2026-04-20 21:17 40.78724 -111.98247 4228 ft 4 kts 84°
2026-04-20 21:17 40.78722 -111.98270 4230 ft 2 kts 84°
2026-04-20 21:21 40.78724 -111.98250 4228 ft 5 kts 84°
2026-04-20 21:21 40.78728 -111.98199 4230 ft 6 kts 84°
2026-04-20 21:21 40.78731 -111.98150 4230 ft 6 kts 84°
2026-04-20 21:21 40.78735 -111.98097 4231 ft 6 kts 85°
2026-04-20 21:22 40.78738 -111.98046 4231 ft 5 kts 86°
2026-04-20 21:22 40.78740 -111.97998 4232 ft 5 kts 87°
2026-04-20 21:22 40.78743 -111.97949 4232 ft 5 kts 85°
2026-04-20 21:22 40.78745 -111.97900 4232 ft 5 kts 85°
2026-04-20 21:23 40.78749 -111.97852 4233 ft 5 kts 84°
2026-04-20 21:23 40.78755 -111.97806 4232 ft 5 kts 63°
2026-04-20 21:23 40.78787 -111.97786 4232 ft 5 kts 10°
2026-04-20 21:23 40.78819 -111.97769 4230 ft 5 kts 41°
2026-04-20 21:24 40.78833 -111.97725 4231 ft 5 kts 63°
2026-04-20 21:24 40.78862 -111.97697 4232 ft 5 kts 12°
2026-04-20 21:24 40.78899 -111.97698 4233 ft 5 kts 356°
2026-04-20 21:24 40.78935 -111.97701 4234 ft 6 kts 356°
2026-04-20 21:25 40.78997 -111.97709 4234 ft 12 kts 354°
2026-04-20 21:25 40.79114 -111.97723 4231 ft 21 kts 354°
2026-04-20 21:25 40.79289 -111.97744 4228 ft 29 kts 355°
2026-04-20 21:25 40.79465 -111.97764 4228 ft 24 kts 355°
2026-04-20 21:26 40.79627 -111.97783 4226 ft 23 kts 355°
2026-04-20 21:26 40.79784 -111.97800 4228 ft 22 kts 355°
2026-04-20 21:26 40.79934 -111.97818 4231 ft 21 kts 354°
2026-04-20 21:26 40.80082 -111.97836 4234 ft 21 kts 355°
2026-04-20 21:27 40.80224 -111.97852 4236 ft 20 kts 355°
2026-04-20 21:27 40.80364 -111.97868 4236 ft 20 kts 355°
2026-04-20 21:27 40.80497 -111.97884 4232 ft 19 kts 355°
2026-04-20 21:27 40.80626 -111.97897 4232 ft 18 kts 355°
2026-04-20 21:28 40.80739 -111.97862 4229 ft 16 kts 59°
2026-04-20 21:28 40.80743 -111.97748 4228 ft 12 kts 112°
2026-04-20 21:28 40.80681 -111.97680 4228 ft 12 kts 165°
2026-04-20 21:28 40.80600 -111.97673 4231 ft 11 kts 182°
2026-04-20 21:29 40.80522 -111.97665 4234 ft 11 kts 174°
2026-04-20 21:29 40.80321 -111.97641 4234 ft 60 kts 175°
2026-04-20 21:29 40.79651 -111.97565 4226 ft 124 kts 175°
2026-04-20 21:29 40.78619 -111.97462 4241 ft 174 kts 175°
2026-04-20 21:30 40.77331 -111.97276 4540 ft 193 kts 173°
2026-04-20 21:30 40.75967 -111.96926 5140 ft 201 kts 166°
2026-04-20 21:30 40.75043 -111.96571 5505 ft 205 kts 165°
2026-04-20 21:30 40.73695 -111.96020 6315 ft 201 kts 168°
2026-04-20 21:31 40.72282 -111.96151 6439 ft 216 kts 201°
2026-04-20 21:31 40.70800 -111.96752 6627 ft 229 kts 184°
2026-04-20 21:31 40.69193 -111.96590 6830 ft 237 kts 176°
2026-04-20 21:31 40.68086 -111.96752 6882 ft 245 kts 200°
2026-04-20 21:32 40.66643 -111.97996 7104 ft 249 kts 217°
2026-04-20 21:32 40.65262 -111.99439 7250 ft 255 kts 214°
2026-04-20 21:32 40.63899 -112.00679 7405 ft 260 kts 205°
2026-04-20 21:32 40.62099 -112.01229 7575 ft 274 kts 180°
2026-04-20 21:33 40.60226 -112.00932 7771 ft 271 kts 173°
2026-04-20 21:33 40.58346 -112.00544 7976 ft 277 kts 172°
2026-04-20 21:33 40.56431 -112.00011 8179 ft 283 kts 163°
2026-04-20 21:33 40.54643 -111.99120 8371 ft 286 kts 161°
2026-04-20 21:34 40.52769 -111.98210 8575 ft 290 kts 162°
2026-04-20 21:34 40.50846 -111.97315 8778 ft 289 kts 163°
2026-04-20 21:34 40.48964 -111.96461 8970 ft 286 kts 163°
2026-04-20 21:34 40.47077 -111.95613 9194 ft 287 kts 163°
2026-04-20 21:35 40.45124 -111.95010 9356 ft 290 kts 176°
2026-04-20 21:35 40.43136 -111.94877 9604 ft 286 kts 179°
2026-04-20 21:35 40.41149 -111.94774 9817 ft 289 kts 178°
2026-04-20 21:35 40.39115 -111.94661 10023 ft 290 kts 179°
2026-04-20 21:36 40.37115 -111.94542 10244 ft 288 kts 179°
2026-04-20 21:36 40.35087 -111.94417 10469 ft 288 kts 178°
2026-04-20 21:36 40.33124 -111.94286 10711 ft 280 kts 178°
2026-04-20 21:36 40.31200 -111.94154 10967 ft 273 kts 179°
2026-04-20 21:37 40.29373 -111.94023 11199 ft 248 kts 178°
2026-04-20 21:37 40.27710 -111.93906 11374 ft 241 kts 180°
2026-04-20 21:37 40.25962 -111.93957 11614 ft 254 kts 186°
2026-04-20 21:37 40.24171 -111.94222 11853 ft 271 kts 187°
2026-04-20 21:38 40.22230 -111.94549 12128 ft 290 kts 187°
2026-04-20 21:38 40.20173 -111.94894 12443 ft 307 kts 187°
2026-04-20 21:38 40.17977 -111.95251 12786 ft 320 kts 187°
2026-04-20 21:38 40.15776 -111.95600 13078 ft 322 kts 187°
2026-04-20 21:39 40.13561 -111.95946 13387 ft 324 kts 187°
2026-04-20 21:39 40.11318 -111.96285 13695 ft 324 kts 186°
2026-04-20 21:39 40.09074 -111.96608 13973 ft 324 kts 186°
2026-04-20 21:39 40.06815 -111.96930 14184 ft 325 kts 186°
2026-04-20 21:40 40.04572 -111.97253 14459 ft 326 kts 186°
2026-04-20 21:40 40.02319 -111.97579 14748 ft 329 kts 186°
2026-04-20 21:40 40.00036 -111.97910 15036 ft 332 kts 186°
2026-04-20 21:40 39.97719 -111.98247 15332 ft 335 kts 186°
2026-04-20 21:41 39.95383 -111.98588 15624 ft 337 kts 186°
2026-04-20 21:41 39.93047 -111.98929 15923 ft 339 kts 186°
2026-04-20 21:41 39.90682 -111.99274 16217 ft 341 kts 187°
2026-04-20 21:41 39.88326 -111.99618 16524 ft 343 kts 187°
2026-04-20 21:42 39.85911 -111.99971 16842 ft 354 kts 187°
2026-04-20 21:42 39.83421 -112.00335 17168 ft 366 kts 187°
2026-04-20 21:42 39.80859 -112.00709 17491 ft 376 kts 187°
2026-04-20 21:42 39.78790 -112.01010 17747 ft 381 kts 187°
2026-04-20 21:43 39.76175 -112.01391 18058 ft 381 kts 187°
2026-04-20 21:43 39.73517 -112.01778 18364 ft 383 kts 187°
2026-04-20 21:43 39.70885 -112.02161 18686 ft 383 kts 187°
2026-04-20 21:43 39.68241 -112.02546 19003 ft 383 kts 187°
2026-04-20 21:44 39.65583 -112.02933 19334 ft 383 kts 187°
2026-04-20 21:44 39.62954 -112.03315 19662 ft 383 kts 187°
2026-04-20 21:44 39.60303 -112.03702 20084 ft 383 kts 188°
2026-04-20 21:44 39.57643 -112.04067 20471 ft 390 kts 187°
2026-04-20 21:45 39.54885 -112.04374 20799 ft 396 kts 186°
2026-04-20 21:45 39.52164 -112.04701 21370 ft 397 kts 186°
2026-04-20 21:45 39.49388 -112.05117 21796 ft 401 kts 189°
2026-04-20 21:45 39.46638 -112.05616 22270 ft 403 kts 190°
2026-04-20 21:46 39.43834 -112.06154 22746 ft 407 kts 190°
2026-04-20 21:46 39.41032 -112.06580 23203 ft 410 kts 188°
2026-04-20 21:46 39.38114 -112.06973 23671 ft 413 kts 188°
2026-04-20 21:46 39.35275 -112.07347 24074 ft 415 kts 188°
2026-04-20 21:47 39.32374 -112.07738 24495 ft 417 kts 188°
2026-04-20 21:47 39.29470 -112.08140 24914 ft 419 kts 188°
2026-04-20 21:47 39.26575 -112.08548 25344 ft 420 kts 188°
2026-04-20 21:47 39.23678 -112.08959 25773 ft 422 kts 188°
2026-04-20 21:48 39.20741 -112.09376 26221 ft 422 kts 188°
2026-04-20 21:48 39.17830 -112.09787 26670 ft 423 kts 188°
2026-04-20 21:48 39.14919 -112.10335 27109 ft 421 kts 195°
2026-04-20 21:48 39.12103 -112.11456 27587 ft 418 kts 204°
2026-04-20 21:49 39.09519 -112.13104 28061 ft 416 kts 211°
2026-04-20 21:49 39.07014 -112.14941 28566 ft 415 kts 212°
2026-04-20 21:49 39.04489 -112.16818 29050 ft 415 kts 212°
2026-04-20 21:49 39.02026 -112.18647 29536 ft 414 kts 212°
2026-04-20 21:50 38.99501 -112.20516 30053 ft 413 kts 212°
2026-04-20 21:50 38.97018 -112.22339 30479 ft 413 kts 212°
2026-04-20 21:50 38.94511 -112.24173 30901 ft 411 kts 212°
2026-04-20 21:50 38.92046 -112.25969 31328 ft 410 kts 212°
2026-04-20 21:51 38.89576 -112.27763 31762 ft 408 kts 212°
2026-04-20 21:51 38.87094 -112.29562 32201 ft 406 kts 212°
2026-04-20 21:51 38.84642 -112.31338 32645 ft 404 kts 212°
2026-04-20 21:51 38.82188 -112.33114 33086 ft 401 kts 212°
2026-04-20 21:52 38.79801 -112.34840 33536 ft 398 kts 212°
2026-04-20 21:52 38.77388 -112.36584 34000 ft 394 kts 212°
2026-04-20 21:52 38.75012 -112.38299 34401 ft 389 kts 212°
2026-04-20 21:52 38.72672 -112.39988 34794 ft 383 kts 212°
2026-04-20 21:53 38.70382 -112.41639 35194 ft 377 kts 212°
2026-04-20 21:53 38.68099 -112.43283 35551 ft 372 kts 213°
2026-04-20 21:53 38.65796 -112.44914 35137 ft 391 kts 212°
2026-04-20 21:53 38.63373 -112.46641 35002 ft 401 kts 212°
2026-04-20 21:54 38.60909 -112.48399 35033 ft 406 kts 212°
2026-04-20 21:54 38.55909 -112.52026 35095 ft 418 kts 213°
2026-04-20 21:55 38.50800 -112.55715 35204 ft 430 kts 212°
2026-04-20 21:55 38.45511 -112.59510 35300 ft 441 kts 212°
2026-04-20 21:56 38.40119 -112.63363 35530 ft 447 kts 211°
2026-04-20 21:56 38.37385 -112.65312 35716 ft 448 kts 212°
2026-04-20 21:56 38.34676 -112.67242 35886 ft 448 kts 212°
2026-04-20 21:56 38.31942 -112.69187 35997 ft 445 kts 212°
2026-04-20 21:57 38.29257 -112.71100 36001 ft 444 kts 213°
2026-04-20 21:57 38.23853 -112.74941 36005 ft 446 kts 213°
2026-04-20 21:58 38.18420 -112.78802 35977 ft 450 kts 212°
2026-04-20 21:58 38.12959 -112.82673 35979 ft 451 kts 210°
2026-04-20 21:59 38.07469 -112.86553 35947 ft 452 kts 212°
2026-04-20 21:59 38.02886 -112.89785 35948 ft 450 kts 214°
2026-04-20 22:00 37.97411 -112.93645 35952 ft 449 kts 212°
2026-04-20 22:00 37.91969 -112.97482 36018 ft 447 kts 212°
2026-04-20 22:01 37.86542 -113.01295 36071 ft 445 kts 211°
2026-04-20 22:01 37.81112 -113.05105 36102 ft 444 kts 210°
2026-04-20 22:02 37.75861 -113.09141 36126 ft 441 kts 216°
2026-04-20 22:02 37.70857 -113.13581 36124 ft 440 kts 218°
2026-04-20 22:03 37.65855 -113.18061 36114 ft 439 kts 218°
2026-04-20 22:03 37.60861 -113.22477 36102 ft 439 kts 217°
2026-04-20 22:04 37.55839 -113.26881 36047 ft 439 kts 218°
2026-04-20 22:04 37.50805 -113.31280 36017 ft 439 kts 218°
2026-04-20 22:05 37.45775 -113.35669 35979 ft 440 kts 216°
2026-04-20 22:05 37.40735 -113.40065 35932 ft 441 kts 217°
2026-04-20 22:06 37.35688 -113.44468 35962 ft 442 kts 217°
2026-04-20 22:06 37.30635 -113.48851 35937 ft 442 kts 216°
2026-04-20 22:07 37.25555 -113.53260 35962 ft 442 kts 216°
2026-04-20 22:07 37.20521 -113.57616 35968 ft 441 kts 216°
2026-04-20 22:08 37.15451 -113.62002 35974 ft 441 kts 216°
2026-04-20 22:08 37.10410 -113.66360 35978 ft 439 kts 216°
2026-04-20 22:09 37.05373 -113.70663 35962 ft 439 kts 213°
2026-04-20 22:09 37.02655 -113.72384 35981 ft 440 kts 202°
2026-04-20 22:09 36.99780 -113.73776 35953 ft 440 kts 202°
2026-04-20 22:10 36.94043 -113.76464 35953 ft 439 kts 202°
2026-04-20 22:10 36.88333 -113.79178 35941 ft 438 kts 202°
2026-04-20 22:11 36.82652 -113.81919 35926 ft 437 kts 202°
2026-04-20 22:11 36.76991 -113.84653 35917 ft 436 kts 203°
2026-04-20 22:12 36.71318 -113.87391 35899 ft 435 kts 202°
2026-04-20 22:12 36.65675 -113.90108 35894 ft 435 kts 202°
2026-04-20 22:13 36.60118 -113.93088 35895 ft 434 kts 205°
2026-04-20 22:13 36.54603 -113.96213 35888 ft 434 kts 205°
2026-04-20 22:14 36.49090 -113.99291 35890 ft 434 kts 205°
2026-04-20 22:14 36.43565 -114.02337 35868 ft 435 kts 205°
2026-04-20 22:15 36.38171 -114.05754 35872 ft 435 kts 212°
2026-04-20 22:15 36.33040 -114.09766 35874 ft 434 kts 213°
2026-04-20 22:16 36.27999 -114.13710 35846 ft 426 kts 212°
2026-04-20 22:16 36.22972 -114.17570 35846 ft 425 kts 212°
2026-04-20 22:17 36.17914 -114.21429 35853 ft 429 kts 212°
2026-04-20 22:17 36.12799 -114.25326 35856 ft 434 kts 212°
2026-04-20 22:18 36.07813 -114.29565 35836 ft 436 kts 222°
2026-04-20 22:18 36.03714 -114.35087 35842 ft 432 kts 228°
2026-04-20 22:19 35.99817 -114.40585 35844 ft 426 kts 227°
2026-04-20 22:19 35.95878 -114.46080 35865 ft 422 kts 227°
2026-04-20 22:20 35.91976 -114.51483 35882 ft 421 kts 227°
2026-04-20 22:20 35.88083 -114.56854 35897 ft 423 kts 227°
2026-04-20 22:21 35.84130 -114.62298 35857 ft 425 kts 227°
2026-04-20 22:21 35.80191 -114.67718 35901 ft 427 kts 227°
2026-04-20 22:22 35.76196 -114.73206 35897 ft 428 kts 227°
2026-04-20 22:22 35.72222 -114.78659 35937 ft 429 kts 227°
2026-04-20 22:23 35.68235 -114.84121 35946 ft 428 kts 227°
2026-04-20 22:23 35.64273 -114.89543 35942 ft 426 kts 227°
2026-04-20 22:24 35.60312 -114.94976 35940 ft 424 kts 227°
2026-04-20 22:24 35.56384 -115.00359 35932 ft 423 kts 227°
2026-04-20 22:25 35.52440 -115.05754 35948 ft 423 kts 227°
2026-04-20 22:25 35.48491 -115.11073 35695 ft 425 kts 226°
2026-04-20 22:25 35.46478 -115.13697 35459 ft 418 kts 226°
2026-04-20 22:26 35.44486 -115.16278 35182 ft 409 kts 226°
2026-04-20 22:26 35.42543 -115.18793 34934 ft 401 kts 226°
2026-04-20 22:26 35.40649 -115.21249 34697 ft 394 kts 226°
2026-04-20 22:27 35.36959 -115.26045 34218 ft 383 kts 226°
2026-04-20 22:27 35.35108 -115.28453 33984 ft 381 kts 226°
2026-04-20 22:27 35.33326 -115.30769 33731 ft 377 kts 226°
2026-04-20 22:27 35.31525 -115.33109 33449 ft 371 kts 226°
2026-04-20 22:28 35.29770 -115.35391 33181 ft 365 kts 226°
2026-04-20 22:28 35.28053 -115.37618 32905 ft 360 kts 226°
2026-04-20 22:28 35.26349 -115.39828 32659 ft 355 kts 226°
2026-04-20 22:28 35.24648 -115.42031 32393 ft 353 kts 226°
2026-04-20 22:29 35.22975 -115.44199 32146 ft 352 kts 226°
2026-04-20 22:29 35.21285 -115.46386 31900 ft 352 kts 226°
2026-04-20 22:29 35.19599 -115.48568 31661 ft 351 kts 226°
2026-04-20 22:29 35.17932 -115.50724 31408 ft 350 kts 226°
2026-04-20 22:30 35.16253 -115.52894 31146 ft 348 kts 226°
2026-04-20 22:30 35.14603 -115.55024 30905 ft 345 kts 226°
2026-04-20 22:30 35.12969 -115.57132 30651 ft 343 kts 226°
2026-04-20 22:30 35.11327 -115.59245 30420 ft 341 kts 225°
2026-04-20 22:31 35.09679 -115.61353 30182 ft 343 kts 226°
2026-04-20 22:31 35.08031 -115.63458 29955 ft 345 kts 225°
2026-04-20 22:31 35.06374 -115.65574 29665 ft 349 kts 225°
2026-04-20 22:31 35.04675 -115.67743 29409 ft 354 kts 225°
2026-04-20 22:32 35.02967 -115.69922 29144 ft 358 kts 225°
2026-04-20 22:32 35.01811 -115.71397 28969 ft 360 kts 225°
2026-04-20 22:32 34.99507 -115.74336 28606 ft 358 kts 225°
2026-04-20 22:32 34.98358 -115.75801 28429 ft 356 kts 225°
2026-04-20 22:33 34.96647 -115.77981 28144 ft 352 kts 225°
2026-04-20 22:33 34.94958 -115.80133 27882 ft 352 kts 226°
2026-04-20 22:33 34.93277 -115.82273 27626 ft 351 kts 226°
2026-04-20 22:33 34.91572 -115.84442 27364 ft 351 kts 226°
2026-04-20 22:34 34.89888 -115.86583 27115 ft 351 kts 226°
2026-04-20 22:34 34.88210 -115.88715 26868 ft 353 kts 226°
2026-04-20 22:34 34.86492 -115.90897 26619 ft 358 kts 226°
2026-04-20 22:34 34.84750 -115.93107 26375 ft 361 kts 226°
2026-04-20 22:35 34.83009 -115.95317 26134 ft 361 kts 226°
2026-04-20 22:35 34.81275 -115.97516 25890 ft 362 kts 225°
2026-04-20 22:35 34.79518 -115.99741 25647 ft 363 kts 226°
2026-04-20 22:35 34.77778 -116.01941 25409 ft 363 kts 226°
2026-04-20 22:36 34.76020 -116.04171 25167 ft 363 kts 226°
2026-04-20 22:36 34.74280 -116.06385 24936 ft 363 kts 226°
2026-04-20 22:36 34.72518 -116.08630 24707 ft 364 kts 226°
2026-04-20 22:36 34.70744 -116.10889 24498 ft 381 kts 226°
2026-04-20 22:37 34.68866 -116.13280 24286 ft 398 kts 226°
2026-04-20 22:37 34.66901 -116.15779 24071 ft 411 kts 226°
2026-04-20 22:37 34.64922 -116.18294 23949 ft 416 kts 226°
2026-04-20 22:37 34.62923 -116.20833 23908 ft 421 kts 226°
2026-04-20 22:38 34.60888 -116.23416 23898 ft 421 kts 226°
2026-04-20 22:38 34.58848 -116.26003 23893 ft 419 kts 226°
2026-04-20 22:38 34.56860 -116.28522 23886 ft 413 kts 226°
2026-04-20 22:38 34.54864 -116.31050 23882 ft 412 kts 226°
2026-04-20 22:39 34.52897 -116.33541 23900 ft 411 kts 226°
2026-04-20 22:39 34.50892 -116.36076 23898 ft 411 kts 226°
2026-04-20 22:39 34.48919 -116.38571 23917 ft 411 kts 226°
2026-04-20 22:39 34.46995 -116.41002 23889 ft 395 kts 226°
2026-04-20 22:40 34.45117 -116.43373 23902 ft 383 kts 226°
2026-04-20 22:40 34.43277 -116.45691 23904 ft 380 kts 226°
2026-04-20 22:40 34.41505 -116.48092 23903 ft 383 kts 235°
2026-04-20 22:40 34.40264 -116.50914 23959 ft 385 kts 243°
2026-04-20 22:41 34.39097 -116.53873 23944 ft 387 kts 243°
2026-04-20 22:41 34.37927 -116.56792 23952 ft 388 kts 242°
2026-04-20 22:41 34.36727 -116.59740 23945 ft 388 kts 242°
2026-04-20 22:41 34.35532 -116.62647 23956 ft 387 kts 242°
2026-04-20 22:42 34.34329 -116.65560 23952 ft 386 kts 242°
2026-04-20 22:42 34.33137 -116.68448 23948 ft 383 kts 242°
2026-04-20 22:42 34.31974 -116.71316 23673 ft 373 kts 243°
2026-04-20 22:42 34.30848 -116.74123 23020 ft 373 kts 243°
2026-04-20 22:43 34.29712 -116.76957 22535 ft 372 kts 243°
2026-04-20 22:43 34.28578 -116.79784 22116 ft 372 kts 243°
2026-04-20 22:43 34.27442 -116.82610 21670 ft 371 kts 242°
2026-04-20 22:43 34.26316 -116.85405 21268 ft 368 kts 242°
2026-04-20 22:44 34.25198 -116.88181 20869 ft 366 kts 242°
2026-04-20 22:44 34.24100 -116.90903 20463 ft 363 kts 242°
2026-04-20 22:44 34.22984 -116.93665 20061 ft 360 kts 242°
2026-04-20 22:44 34.21895 -116.96355 19659 ft 358 kts 242°
2026-04-20 22:45 34.20796 -116.99163 19268 ft 356 kts 245°
2026-04-20 22:45 34.19986 -117.01963 19044 ft 356 kts 250°
2026-04-20 22:45 34.19268 -117.04835 19029 ft 358 kts 251°
2026-04-20 22:45 34.18546 -117.07705 18912 ft 351 kts 250°
2026-04-20 22:46 34.17819 -117.10478 18546 ft 346 kts 249°
2026-04-20 22:46 34.17067 -117.13268 17997 ft 345 kts 249°
2026-04-20 22:46 34.16322 -117.16004 17312 ft 345 kts 249°
2026-04-20 22:46 34.15574 -117.18728 16822 ft 340 kts 249°
2026-04-20 22:47 34.14831 -117.21428 16561 ft 328 kts 249°
2026-04-20 22:47 34.14121 -117.24001 15914 ft 328 kts 249°
2026-04-20 22:47 34.13393 -117.26635 15242 ft 328 kts 249°
2026-04-20 22:47 34.12679 -117.29226 14599 ft 328 kts 249°
2026-04-20 22:48 34.11952 -117.31862 13940 ft 327 kts 249°
2026-04-20 22:48 34.11236 -117.34455 13231 ft 327 kts 249°
2026-04-20 22:48 34.10511 -117.37077 12501 ft 326 kts 249°
2026-04-20 22:48 34.09831 -117.39713 11801 ft 326 kts 250°
2026-04-20 22:49 34.09188 -117.42323 11117 ft 325 kts 251°
2026-04-20 22:49 34.08541 -117.44941 10522 ft 322 kts 251°
2026-04-20 22:49 34.07916 -117.47455 10316 ft 313 kts 250°
2026-04-20 22:49 34.07279 -117.49995 10212 ft 317 kts 250°
2026-04-20 22:50 34.06633 -117.52538 10109 ft 313 kts 250°
2026-04-20 22:50 34.05981 -117.55088 10068 ft 311 kts 250°
2026-04-20 22:50 34.05343 -117.57578 10054 ft 302 kts 250°
2026-04-20 22:50 34.04740 -117.59942 10050 ft 290 kts 250°
2026-04-20 22:51 34.04102 -117.62255 10018 ft 291 kts 246°
2026-04-20 22:51 34.03309 -117.64495 9964 ft 286 kts 243°
2026-04-20 22:51 34.02814 -117.66809 9975 ft 288 kts 261°
2026-04-20 22:51 34.02671 -117.69263 9977 ft 292 kts 262°
2026-04-20 22:52 34.02445 -117.71680 9969 ft 291 kts 259°
2026-04-20 22:52 34.02163 -117.74120 9821 ft 292 kts 259°
2026-04-20 22:52 34.01897 -117.76537 9510 ft 295 kts 259°
2026-04-20 22:52 34.01718 -117.78213 9251 ft 295 kts 259°
2026-04-20 22:53 34.01457 -117.80662 8905 ft 291 kts 259°
2026-04-20 22:53 34.01194 -117.83116 8465 ft 290 kts 260°
2026-04-20 22:53 34.00936 -117.85534 8016 ft 287 kts 260°
2026-04-20 22:53 34.00680 -117.87924 7573 ft 283 kts 259°
2026-04-20 22:54 34.00426 -117.90293 7143 ft 280 kts 259°
2026-04-20 22:54 34.00181 -117.92606 6738 ft 276 kts 258°
2026-04-20 22:54 33.99938 -117.94889 6332 ft 273 kts 258°
2026-04-20 22:54 33.99701 -117.97113 6064 ft 266 kts 260°
2026-04-20 22:55 33.99472 -117.99286 6018 ft 248 kts 259°
2026-04-20 22:55 33.99266 -118.01259 5961 ft 228 kts 259°
2026-04-20 22:55 33.99065 -118.03122 5976 ft 222 kts 259°
2026-04-20 22:55 33.98869 -118.04982 5762 ft 225 kts 258°
2026-04-20 22:56 33.98672 -118.06860 5492 ft 221 kts 259°
2026-04-20 22:56 33.98481 -118.08670 5203 ft 217 kts 261°
2026-04-20 22:56 33.98287 -118.10522 4900 ft 214 kts 260°
2026-04-20 22:56 33.98100 -118.12296 4618 ft 215 kts 261°
2026-04-20 22:57 33.97917 -118.14048 4335 ft 208 kts 261°
2026-04-20 22:57 33.97742 -118.15725 4104 ft 199 kts 261°
2026-04-20 22:57 33.97571 -118.17363 3828 ft 193 kts 261°
2026-04-20 22:57 33.97404 -118.18956 3589 ft 190 kts 261°
2026-04-20 22:58 33.97239 -118.20543 3339 ft 188 kts 261°
2026-04-20 22:58 33.97081 -118.22067 3099 ft 184 kts 261°
2026-04-20 22:58 33.96923 -118.23582 2848 ft 178 kts 260°
2026-04-20 22:58 33.96771 -118.25047 2616 ft 170 kts 261°
2026-04-20 22:59 33.96626 -118.26438 2397 ft 164 kts 259°
2026-04-20 22:59 33.96487 -118.27786 2176 ft 157 kts 261°
2026-04-20 22:59 33.96357 -118.29048 1997 ft 145 kts 260°
2026-04-20 22:59 33.96239 -118.30188 1816 ft 128 kts 260°
2026-04-20 23:00 33.96130 -118.31235 1667 ft 127 kts 259°
2026-04-20 23:00 33.96013 -118.32337 1460 ft 135 kts 260°
2026-04-20 23:00 33.95896 -118.33476 1278 ft 138 kts 261°
2026-04-20 23:00 33.95767 -118.34622 1120 ft 138 kts 259°
2026-04-20 23:01 33.95642 -118.35727 977 ft 141 kts 261°
2026-04-20 23:01 33.95534 -118.36870 768 ft 134 kts 261°
2026-04-20 23:01 33.95413 -118.37896 585 ft 131 kts 263°
2026-04-20 23:01 33.95309 -118.38980 418 ft 126 kts 259°
2026-04-20 23:02 33.95216 -118.40016 219 ft 126 kts 262°
2026-04-20 23:02 33.95117 -118.41071 133 ft 130 kts 262°
2026-04-20 23:02 33.95018 -118.42075 120 ft 101 kts 263°
2026-04-20 23:02 33.94929 -118.42562 124 ft 39 kts 235°
2026-04-20 23:03 33.94807 -118.42727 122 ft 19 kts 216°
2026-04-20 23:03 33.94681 -118.42767 123 ft 19 kts 183°
2026-04-20 23:03 33.94633 -118.42770 125 ft 1 kts 185°
2026-04-20 23:03 33.94619 -118.42762 122 ft 3 kts 145°
2026-04-20 23:04 33.94618 -118.42760 122 ft 1 kts 138°
2026-04-20 23:04 33.94598 -118.42758 122 ft 4 kts 178°
2026-04-20 23:04 33.94535 -118.42757 123 ft 15 kts 179°
2026-04-20 23:04 33.94426 -118.42743 122 ft 16 kts 173°
2026-04-20 23:05 33.94320 -118.42730 123 ft 15 kts 173°
2026-04-20 23:05 33.94217 -118.42715 122 ft 14 kts 172°
2026-04-20 23:05 33.94120 -118.42700 123 ft 14 kts 173°
2026-04-20 23:05 33.94026 -118.42686 122 ft 13 kts 173°
2026-04-20 23:06 33.93937 -118.42673 122 ft 13 kts 173°
2026-04-20 23:06 33.93877 -118.42664 123 ft 13 kts 171°
2026-04-20 23:06 33.93792 -118.42652 123 ft 12 kts 174°
2026-04-20 23:06 33.93725 -118.42643 122 ft 3 kts 163°
2026-04-20 23:07 33.93704 -118.42613 123 ft 7 kts 121°
2026-04-20 23:07 33.93702 -118.42530 125 ft 13 kts 79°
2026-04-20 23:07 33.93718 -118.42386 125 ft 21 kts 84°
2026-04-20 23:07 33.93737 -118.42192 125 ft 24 kts 82°
2026-04-20 23:08 33.93760 -118.41970 125 ft 28 kts 83°
2026-04-20 23:08 33.93785 -118.41727 125 ft 31 kts 83°
2026-04-20 23:08 33.93812 -118.41471 121 ft 30 kts 83°
2026-04-20 23:08 33.93836 -118.41231 124 ft 27 kts 83°
2026-04-20 23:09 33.93859 -118.41012 125 ft 25 kts 83°
2026-04-20 23:09 33.93879 -118.40802 125 ft 23 kts 82°
2026-04-20 23:09 33.93899 -118.40624 121 ft 13 kts 83°
2026-04-20 23:09 33.93909 -118.40572 124 ft 7 kts 66°
2026-04-20 23:10 33.93951 -118.40541 120 ft 7 kts
2026-04-20 23:10 33.93995 -118.40549 121 ft 3 kts 353°
2026-04-20 23:10 33.94013 -118.40544 122 ft 3 kts 38°
2026-04-20 23:10 33.94019 -118.40523 124 ft 3 kts 73°
2026-04-20 23:11 33.94023 -118.40507 125 ft 2 kts 75°
2026-04-20 23:11 33.94024 -118.40494 125 ft 0 kts 85°